WBANNO,USDM_WEEK,LONGITUDE,LATITUDE,SMVWC_5_CM_MEAN,SMANOM_5_CM_MEAN,SMPERC_5_CM_30COUNTS,SMPERC_5_CM_70COUNTS,SMVWC_10_CM_MEAN,SMANOM_10_CM_MEAN,SMPERC_10_CM_30COUNTS,SMPERC_10_CM_70COUNTS,SMVWC_20_CM_MEAN,SMANOM_20_CM_MEAN,SMPERC_20_CM_30COUNTS,SMPERC_20_CM_70COUNTS,SMVWC_50_CM_MEAN,SMANOM_50_CM_MEAN,SMPERC_50_CM_30COUNTS,SMPERC_50_CM_70COUNTS,SMVWC_100_CM_MEAN,SMANOM_100_CM_MEAN,SMPERC_100_CM_30COUNTS,SMPERC_100_CM_70COUNTS,SMVWC_TOP_CM_MEAN,SMANOM_TOP_CM_MEAN,SMPERC_TOP_CM_30COUNTS,SMPERC_TOP_CM_70COUNTS,SMVWC_COLUMN_CM_MEAN,SMANOM_COLUMN_CM_MEAN,SMPERC_COLUMN_CM_30COUNTS,SMPERC_COLUMN_CM_70COUNTS
63892,20240227,-88.14,32.84,,,,,,,,,,,,,,,,,,,,,,,,,,,,
63892,20240228,-88.14,32.84,,,,,,,,,,,,,,,,,,,,,,,,,,,,
63892,20240229,-88.14,32.84,,,,,,,,,,,,,,,,,,,,,,,,,,,,
63892,20240301,-88.14,32.84,,,,,,,,,,,,,,,,,,,,,,,,,,,,
63892,20240302,-88.14,32.84,,,,,,,,,,,,,,,,,,,,,,,,,,,,
63892,20240303,-88.14,32.84,0.24,,,,0.246,,,,0.298,,,,0.493,,,,,,,,0.243,,,,,,,
63892,20240304,-88.14,32.84,0.245,,,,0.243,,,,0.327,,,,0.496,,,,,,,,0.244,,,,,,,
63892,20240305,-88.14,32.84,0.264,,,,0.261,,,,0.353,,,,0.496,,,,,,,,0.263,,,,,,,
63892,20240306,-88.14,32.84,0.315,,,,0.319,,,,0.392,,,,0.496,,,,,,,,0.317,,,,,,,
63892,20240307,-88.14,32.84,0.358,,,,0.372,,,,0.433,,,,0.499,,,,,,,,0.365,,,,,,,
63892,20240308,-88.14,32.84,0.371,,,,0.383,,,,0.474,,,,0.512,,,,,,,,0.377,,,,,,,
63892,20240309,-88.14,32.84,0.397,,,,0.397,,,,0.486,,,,0.515,,,,,,,,0.397,,,,,,,
63892,20240310,-88.14,32.84,0.434,,,,0.429,,,,0.487,,,,0.516,,,,,,,,0.431,,,,,,,
63892,20240311,-88.14,32.84,0.442,,,,0.445,,,,0.488,,,,0.516,,,,,,,,0.443,,,,,,,
63892,20240312,-88.14,32.84,0.435,,,,0.432,,,,0.476,,,,0.516,,,,,,,,0.433,,,,,,,
63892,20240313,-88.14,32.84,0.397,,,,0.382,,,,0.448,,,,0.516,,,,,,,,0.39,,,,,,,
63892,20240314,-88.14,32.84,0.367,,,,0.335,,,,0.418,,,,0.517,,,,,,,,0.351,,,,,,,
63892,20240315,-88.14,32.84,0.366,,,,0.331,,,,0.387,,,,0.517,,,,,,,,0.349,,,,,,,
63892,20240316,-88.14,32.84,0.37,,,,0.335,,,,0.384,,,,0.517,,,,,,,,0.353,,,,,,,
63892,20240317,-88.14,32.84,0.371,,,,0.335,,,,0.383,,,,0.517,,,,,,,,0.353,,,,,,,
63892,20240318,-88.14,32.84,0.404,,,,0.372,,,,0.383,,,,0.518,,,,,,,,0.388,,,,,,,
63892,20240319,-88.14,32.84,0.423,,,,0.404,,,,0.403,,,,0.518,,,,,,,,0.413,,,,,,,
63892,20240320,-88.14,32.84,0.426,,,,0.406,,,,0.424,,,,0.518,,,,,,,,0.416,,,,,,,
63892,20240321,-88.14,32.84,0.427,,,,0.407,,,,0.425,,,,0.518,,,,,,,,0.417,,,,,,,
63892,20240322,-88.14,32.84,0.429,,,,0.408,,,,0.426,,,,0.519,,,,,,,,0.418,,,,,,,
63892,20240323,-88.14,32.84,0.41,,,,0.382,,,,0.413,,,,0.519,,,,,,,,0.396,,,,,,,
63892,20240324,-88.14,32.84,0.387,,,,0.353,,,,0.416,,,,0.519,,,,,,,,0.37,,,,,,,
63892,20240325,-88.14,32.84,0.35,,,,0.301,,,,0.392,,,,0.518,,,,,,,,0.325,,,,,,,
63892,20240326,-88.14,32.84,0.339,,,,0.28,,,,0.369,,,,0.518,,,,,,,,0.309,,,,,,,
63892,20240327,-88.14,32.84,0.373,,,,0.328,,,,0.379,,,,0.518,,,,,,,,0.351,,,,,,,
63892,20240328,-88.14,32.84,0.385,,,,0.35,,,,0.41,,,,0.517,,,,,,,,0.367,,,,,,,
63892,20240329,-88.14,32.84,0.386,,,,0.35,,,,0.415,,,,0.517,,,,,,,,0.368,,,,,,,
63892,20240330,-88.14,32.84,0.368,,,,0.326,,,,0.399,,,,0.516,,,,,,,,0.347,,,,,,,
63892,20240331,-88.14,32.84,0.351,,,,0.302,,,,0.364,,,,0.516,,,,,,,,0.326,,,,,,,
63892,20240401,-88.14,32.84,0.347,,,,0.298,,,,0.355,,,,0.515,,,,,,,,0.322,,,,,,,
63892,20240402,-88.14,32.84,0.333,,,,0.282,,,,0.343,,,,0.514,,,,,,,,0.308,,,,,,,
63892,20240403,-88.14,32.84,0.292,,,,0.228,,,,0.306,,,,0.514,,,,,,,,0.26,,,,,,,
63892,20240404,-88.14,32.84,0.276,,,,0.202,,,,0.269,,,,0.513,,,,,,,,0.239,,,,,,,
63892,20240405,-88.14,32.84,0.268,,,,0.197,,,,0.257,,,,0.504,,,,,,,,0.232,,,,,,,
63892,20240406,-88.14,32.84,0.26,,,,0.191,,,,0.248,,,,0.491,,,,,,,,0.225,,,,,,,
63892,20240407,-88.14,32.84,0.25,,,,0.185,,,,0.238,,,,0.475,,,,,,,,0.217,,,,,,,
63892,20240408,-88.14,32.84,0.239,,,,0.179,,,,0.228,,,,0.458,,,,,,,,0.209,,,,,,,
63892,20240409,-88.14,32.84,0.229,,,,0.174,,,,0.217,,,,0.44,,,,,,,,0.202,,,,,,,
63892,20240410,-88.14,32.84,0.224,,,,0.17,,,,0.207,,,,0.422,,,,,,,,0.197,,,,,,,
63892,20240411,-88.14,32.84,0.235,,,,0.206,,,,0.227,,,,0.416,,,,,,,,0.22,,,,,,,
63892,20240412,-88.14,32.84,0.263,,,,0.255,,,,0.26,,,,0.424,,,,,,,,0.259,,,,,,,
63892,20240413,-88.14,32.84,0.274,,,,0.266,,,,0.28,,,,0.436,,,,,,,,0.27,,,,,,,
63892,20240414,-88.14,32.84,0.284,,,,0.273,,,,0.291,,,,0.45,,,,,,,,0.278,,,,,,,
63892,20240415,-88.14,32.84,0.295,,,,0.279,,,,0.302,,,,0.466,,,,,,,,0.287,,,,,,,
63892,20240416,-88.14,32.84,0.302,,,,0.285,,,,0.312,,,,0.484,,,,,,,,0.293,,,,,,,
63892,20240417,-88.14,32.84,0.303,,,,0.287,,,,0.319,,,,0.496,,,,,,,,0.295,,,,,,,
63892,20240418,-88.14,32.84,0.286,,,,0.247,,,,0.294,,,,0.49,,,,,,,,0.266,,,,,,,
63892,20240419,-88.14,32.84,0.253,,,,0.195,,,,0.256,,,,0.477,,,,,,,,0.224,,,,,,,
63892,20240420,-88.14,32.84,0.24,,,,0.184,,,,0.234,,,,0.463,,,,,,,,0.212,,,,,,,
63892,20240421,-88.14,32.84,0.244,,,,0.201,,,,0.241,,,,0.451,,,,,,,,0.222,,,,,,,
63892,20240422,-88.14,32.84,0.256,,,,0.229,,,,0.265,,,,0.442,,,,,,,,0.243,,,,,,,
63892,20240423,-88.14,32.84,0.261,,,,0.233,,,,0.279,,,,0.435,,,,,,,,0.247,,,,,,,
63892,20240424,-88.14,32.84,0.266,,,,0.236,,,,0.283,,,,0.437,,,,,,,,0.251,,,,,,,
63892,20240425,-88.14,32.84,0.271,,,,0.239,,,,0.288,,,,0.448,,,,,,,,0.255,,,,,,,
63892,20240426,-88.14,32.84,0.274,,,,0.241,,,,0.293,,,,0.457,,,,,,,,0.257,,,,,,,
63892,20240427,-88.14,32.84,0.274,,,,0.241,,,,0.296,,,,0.459,,,,,,,,0.258,,,,,,,
63892,20240428,-88.14,32.84,0.259,,,,0.218,,,,0.281,,,,0.455,,,,,,,,0.239,,,,,,,
63892,20240429,-88.14,32.84,0.235,,,,0.184,,,,0.247,,,,0.445,,,,,,,,0.209,,,,,,,
63892,20240430,-88.14,32.84,0.221,,,,0.174,,,,0.225,,,,0.433,,,,,,,,0.198,,,,,,,
63892,20240501,-88.14,32.84,0.211,,,,0.168,,,,0.215,,,,0.419,,,,,,,,0.189,,,,,,,
